Wind_Speed
21 20 21 22 26 31 31 24 27 28 29 31 32 34 36 41 44 42 42 42 43 44 44 47 50 52 54 54 52 52 54 55 55 51 41 26 26 26 23 21 17 19 14 8 4 2 3 5 12
24 23 19 24 18 18 22 33 29 31 32 33 36 37 40 39 38 44 44 47 48 48 47 46 48 49 49 49 52 50 51 53 56 53 50 39 30 22 20 23 17 21 19 11 8 5 6 5 7
27 28 23 23 33 36 40 34 34 37 36 38 34 44 44 41 43 54 48 45 48 50 49 48 46 46 45 45 43 45 44 47 49 54 50 46 42 37 22 23 23 26 23 18 14 8 8 8 7
29 28 26 37 29 36 43 41 38 39 43 41 40 44 45 52 52 45 45 49 49 52 46 41 38 37 37 35 36 38 39 42 42 46 48 45 43 41 36 25 26 29 22 19 18 11 9 11 7
29 23 9 12 27 41 41 33 40 41 41 38 32 14 52 34 34 42 51 47 49 45 40 33 30 31 30 25 20 22 27 30 32 34 36 40 39 39 36 37 28 28 27 22 21 13 9 13 8
31 22 23 21 33 35 31 42 44 41 44 42 19 30 38 38 52 46 43 40 39 34 30 28 29 28 23 19 21 22 19 22 28 32 32 35 39 36 35 36 35 34 32 27 27 16 11 14 6
30 27 23 23 25 42 53 44 36 39 34 41 30 29 34 44 45 54 44 34 34 32 28 24 22 22 25 19 18 20 18 19 20 25 27 30 37 40 43 37 37 36 29 29 30 26 18 18 7
37 33 24 29 39 43 36 42 39 43 38 32 29 30 40 57 58 52 41 31 28 28 27 21 19 20 21 28 27 23 21 17 12 16 25 27 32 40 40 38 44 36 32 26 31 19 16 23 14
36 30 20 15 29 42 37 33 44 43 27 25 35 39 47 41 42 39 32 24 23 22 22 17 18 18 18 16 18 20 18 14 9 12 18 20 30 39 39 41 42 40 40 29 27 18 18 22 21
39 28 21 38 40 40 45 49 43 38 15 23 23 23 30 28 29 26 23 21 18 17 18 16 16 16 14 13 12 13 16 19 13 11 16 17 27 38 43 41 43 42 36 29 29 28 24 22 22
45 34 34 33 40 45 43 44 43 41 18 23 37 30 29 31 25 23 18 18 18 19 20 20 18 13 6 9 12 16 19 19 19 18 18 20 29 33 39 45 40 42 37 30 24 25 22 13 22
45 46 42 41 40 41 42 41 41 40 25 35 41 40 40 29 23 17 18 19 20 17 19 20 18 11 8 9 8 15 19 22 22 21 25 24 25 33 41 47 43 40 35 26 35 23 23 16 21
46 44 42 39 41 43 42 38 37 34 29 26 37 40 37 25 21 17 18 17 17 18 16 14 9 7 10 13 17 16 20 16 21 25 28 26 25 35 44 45 43 35 37 36 38 26 20 19 21
41 41 38 39 42 44 38 31 24 15 28 19 23 29 33 26 23 18 15 12 15 17 9 6 7 6 5 8 11 9 12 12 11 26 33 29 28 36 46 45 49 40 42 38 38 27 20 23 19
40 38 36 35 36 41 35 25 14 20 33 32 42 40 31 21 19 18 15 9 10 11 7 9 10 8 9 11 11 10 9 18 31 18 39 32 32 33 39 47 48 42 46 38 37 33 27 19 21
37 34 30 28 24 31 31 22 15 18 25 31 35 28 23 21 18 20 16 8 7 8 9 12 14 12 14 19 18 20 18 16 19 32 43 42 39 37 38 41 48 47 46 41 36 34 28 24 25
30 26 7 5 26 29 36 32 20 33 25 28 25 19 22 25 21 22 19 10 9 8 10 9 15 19 15 16 17 21 22 23 22 22 37 45 44 41 42 40 41 43 46 40 36 34 30 25 21
29 20 4 6 25 50 47 41 16 28 21 13 10 14 23 24 25 24 20 11 11 12 6 9 16 13 16 20 20 19 22 25 26 26 35 47 49 42 43 41 40 41 45 36 37 35 34 25 24
29 25 25 32 29 35 40 32 21 9 15 20 6 17 47 23 25 21 21 12 10 12 8 8 8 15 18 19 19 20 19 17 19 21 21 41 51 51 45 44 42 42 43 35 33 33 31 31 26
28 27 28 28 36 37 32 23 19 14 15 32 12 27 20 32 21 19 20 20 18 16 13 9 13 21 25 21 15 18 20 21 21 22 24 26 40 55 52 50 45 43 46 38 35 34 32 29 28
32 28 21 26 30 33 18 18 19 18 20 13 20 27 29 23 20 20 19 27 26 18 14 8 10 21 30 25 21 21 23 24 28 25 26 28 32 48 57 57 49 44 46 44 41 35 33 33 31
29 23 24 26 27 20 19 20 17 17 10 8 21 27 24 21 17 17 21 26 25 17 16 12 16 22 28 32 26 24 23 24 29 31 27 31 26 38 56 58 53 49 47 46 42 40 37 34 28
25 22 27 24 18 19 17 16 13 15 15 19 11 9 24 18 12 15 21 20 22 15 15 19 21 27 30 31 26 24 26 16 13 18 26 30 30 28 48 62 60 53 51 46 44 40 40 37 31
24 22 24 20 19 17 14 15 12 7 18 14 18 24 20 18 19 16 17 19 18 16 19 17 23 27 30 30 25 26 25 14 6 8 14 23 32 33 34 59 62 57 50 49 47 39 37 35 33
25 22 21 19 19 12 12 11 9 10 17 23 22 24 14 15 15 16 13 15 17 13 16 16 21 27 29 26 23 26 19 8 5 6 9 14 23 33 33 46 63 60 52 50 46 43 35 35 31
23 19 21 16 17 11 7 8 21 13 15 16 21 17 9 15 11 11 9 11 19 16 19 19 23 27 26 22 18 18 19 12 6 0 4 10 17 23 28 37 59 59 59 50 46 44 46 39 38
22 20 18 18 18 13 12 11 8 13 9 11 16 14 12 11 13 12 16 17 21 21 22 21 25 23 21 17 13 15 14 15 10 7 5 5 9 15 25 31 50 53 57 55 50 49 42 44 45
20 17 14 16 16 18 17 13 14 19 7 8 13 14 15 17 14 21 18 12 16 21 25 25 25 24 19 13 10 12 7 6 11 6 6 3 3 7 23 24 35 47 55 57 53 47 44 45 42
16 14 14 14 16 17 17 7 10 7 10 13 18 19 14 21 19 20 22 17 15 17 21 26 20 16 14 9 9 7 9 4 1 5 5 2 3 6 12 20 25 36 45 54 51 47 48 44 45
16 14 12 13 11 8 18 16 6 3 16 9 27 26 22 21 23 21 24 20 18 18 18 21 17 12 7 7 5 5 7 2 5 3 5 5 2 2 7 15 23 33 41 46 47 46 47 45 44
Wind_Direction
290 293 304 322 312 299 283 279 282 285 283 283 284 286 290 291 291 289 288 287 282 279 275 273 270 265 264 259 258 256 251 256 262 262 254 239 228 231 234 222 236 238 218 218 219 183 228 196 212
290 294 304 310 290 309 284 289 294 294 293 294 293 296 294 297 296 294 290 288 286 282 278 275 272 271 268 264 261 260 258 255 255 262 263 247 237 234 231 216 214 236 230 220 247 230 235 212 223
286 291 295 277 296 301 295 295 303 304 303 305 302 307 304 296 294 295 291 290 288 284 281 277 275 272 270 267 264 261 258 255 255 254 258 258 247 238 233 217 204 233 242 252 221 230 238 223 219
280 288 315 298 286 296 299 291 292 302 301 304 314 322 307 290 283 286 296 295 290 288 286 283 277 271 266 265 263 262 261 262 257 253 251 248 251 247 232 231 208 222 235 248 222 224 227 220 226
277 287 259 334 291 294 293 294 293 303 307 310 348 235 305 296 292 293 301 296 293 290 285 279 273 265 262 259 254 257 256 258 252 247 242 232 230 240 234 228 213 204 230 244 233 221 237 228 228
272 272 263 270 270 285 287 299 307 313 307 316 310 268 288 286 278 292 302 303 294 288 283 282 274 269 247 237 245 243 257 262 256 246 245 230 220 217 222 221 214 213 212 229 229 244 248 232 241
271 271 271 264 298 281 288 293 304 301 309 308 298 302 293 286 282 290 305 303 297 293 293 285 271 266 243 238 248 262 280 270 267 243 241 231 220 209 199 204 209 212 211 222 237 245 243 245 256
277 284 293 293 276 274 289 297 301 303 305 309 309 304 279 296 296 296 297 291 291 288 285 278 275 270 255 253 264 267 283 260 257 247 239 235 219 206 203 218 211 207 207 213 237 227 233 242 274
279 288 298 255 282 286 292 300 299 298 314 293 303 305 304 292 290 287 284 286 292 285 272 273 274 273 272 270 270 273 267 230 233 239 231 226 210 204 208 208 202 204 206 213 221 232 227 240 258
277 283 274 265 272 273 279 294 292 298 298 249 257 277 301 286 285 279 282 287 280 281 274 281 280 283 291 274 272 269 254 221 228 249 216 211 207 204 205 201 199 203 206 208 221 235 236 241 246
279 274 261 254 265 283 283 283 286 291 279 269 264 283 266 293 277 278 284 273 271 276 277 287 295 287 295 271 254 251 240 221 234 218 205 208 206 210 207 197 196 197 206 207 214 221 225 240 242
280 281 276 278 278 281 280 285 289 287 278 246 246 262 263 288 270 272 283 270 280 286 280 290 290 278 258 242 242 271 231 230 216 224 208 210 207 207 199 194 195 200 203 214 214 228 228 231 243
278 280 284 285 286 286 286 293 300 296 282 260 258 266 276 276 265 277 274 263 284 297 295 309 284 261 263 238 266 253 234 243 218 233 224 214 211 205 194 196 194 202 199 206 217 216 221 237 243
277 283 287 290 290 289 294 301 285 304 282 264 280 280 269 272 270 269 259 264 290 306 300 313 285 269 248 250 277 272 237 207 212 251 233 222 211 202 195 200 199 204 201 207 212 213 211 229 235
281 283 291 300 300 298 303 301 267 266 279 282 284 294 272 257 255 253 239 273 303 315 313 334 317 281 248 270 283 281 236 234 247 232 224 225 221 199 201 202 203 205 202 201 206 213 223 230 241
280 289 307 302 288 294 304 306 259 270 283 292 284 275 262 260 251 239 236 267 314 330 326 312 315 315 294 293 282 272 270 248 243 233 218 221 217 212 207 205 210 209 204 206 207 212 219 224 233
278 293 349 144 254 294 299 301 289 300 279 282 281 274 265 271 251 241 237 260 288 287 299 311 300 313 316 310 299 282 269 265 262 256 230 224 217 218 212 211 207 205 202 206 205 210 214 209 232
269 283 203 300 275 276 282 293 288 245 306 313 312 289 275 259 259 245 239 258 291 317 336 309 308 317 327 315 302 287 280 272 265 262 237 228 220 217 215 212 209 204 201 203 209 214 210 210 221
269 268 238 214 258 268 276 284 279 279 347 340 323 342 289 275 264 260 241 253 277 325 322 320 329 344 331 323 296 292 294 286 282 267 250 227 226 216 217 215 212 204 200 205 209 214 213 208 217
269 270 263 250 257 267 273 284 264 266 236 255 285 224 264 253 258 267 235 254 262 283 304 335 357 0 1 345 315 307 297 291 274 272 260 242 225 218 213 221 211 204 200 199 205 209 211 216 212
267 276 251 248 251 266 284 283 274 261 277 250 268 266 261 263 264 271 247 253 270 276 298 320 339 350 355 344 336 319 297 290 271 258 256 248 234 218 215 220 216 207 205 205 209 207 210 217 220
274 259 254 257 269 281 280 280 280 278 302 264 302 282 266 270 278 266 253 257 268 276 273 303 327 339 346 345 336 324 314 297 264 250 241 241 233 218 215 213 215 208 208 207 214 213 215 220 220
251 251 256 266 269 276 278 269 268 267 255 250 236 185 266 264 297 263 257 265 264 281 271 297 315 322 335 337 336 332 325 320 278 250 234 233 233 224 219 210 216 212 210 213 216 215 217 222 219
247 253 256 258 267 276 275 265 268 232 231 238 235 262 272 257 281 262 261 264 270 256 265 286 317 324 332 339 340 334 333 335 286 261 243 228 230 229 220 214 214 214 210 215 213 217 218 216 215
248 247 247 257 269 272 272 286 283 264 241 258 267 272 251 271 287 242 245 249 258 255 278 302 312 323 340 343 347 344 347 323 324 256 252 239 231 232 224 216 209 212 211 214 217 218 217 217 212
239 234 246 255 264 254 256 299 290 281 288 263 263 282 246 281 279 257 230 248 255 256 283 294 309 322 342 342 351 345 356 30 20 167 275 257 231 229 223 209 207 211 214 214 214 218 225 222 219
227 240 247 255 260 256 269 261 267 286 286 311 289 279 254 263 273 270 266 254 264 273 278 286 302 320 353 344 354 352 23 39 32 13 332 283 215 214 211 211 206 205 213 219 221 223 225 226 225
220 240 242 260 267 259 246 249 168 244 271 319 303 289 274 252 243 263 267 263 256 267 277 286 295 308 344 344 355 334 4 51 25 30 40 60 127 193 203 203 201 203 208 215 219 226 229 228 229
214 229 259 268 280 267 241 218 215 236 238 272 292 284 268 263 246 251 262 264 268 262 267 276 291 301 330 330 327 315 334 259 43 359 29 111 149 152 179 198 199 199 204 209 214 221 229 234 235
221 237 257 278 302 259 211 199 152 154 319 295 294 294 293 270 256 249 260 258 262 263 269 271 271 278 302 305 305 303 338 7 245 304 31 51 215 203 181 195 200 195 199 203 210 219 226 229 234
Height
10984 10984 10985 10987 10985 10984 10984 10984 10985 10985 10982 10984 10983 10980 10975 10971 10969 10967 10965 10965 10960 10957 10955 10952 10951 10951 10951 10952 10953 10955 10957 10958 10958 10961 10969 10973 10974 10975 10977 10980 10983 10985 10986 10988 10991 10991 10994 10994 10994
10982 10982 10985 10980 10980 10979 10979 10980 10983 10978 10978 10977 10973 10970 10966 10962 10959 10958 10955 10954 10952 10948 10945 10943 10942 10941 10941 10941 10941 10944 10946 10949 10951 10952 10956 10966 10969 10971 10974 10976 10978 10982 10984 10985 10988 10989 10991 10992 10993
10980 10978 10980 10979 10976 10976 10975 10976 10977 10976 10972 10969 10968 10967 10960 10954 10950 10949 10944 10941 10942 10937 10934 10932 10931 10930 10930 10930 10931 10932 10934 10937 10941 10945 10947 10952 10959 10966 10970 10972 10973 10979 10983 10983 10985 10986 10988 10990 10991
10979 10978 10980 10972 10967 10969 10970 10973 10975 10968 10965 10966 10972 10968 10954 10944 10940 10938 10934 10932 10929 10927 10924 10920 10919 10920 10920 10921 10922 10924 10925 10927 10930 10933 10937 10944 10949 10956 10964 10968 10971 10975 10979 10980 10981 10983 10985 10988 10990
10976 10978 10979 10980 10962 10964 10968 10968 10967 10963 10961 10970 10983 10948 10943 10933 10927 10925 10926 10926 10920 10920 10916 10913 10911 10912 10913 10915 10917 10918 10919 10919 10920 10923 10926 10932 10939 10947 10954 10962 10967 10969 10975 10978 10979 10980 10983 10985 10987
10972 10977 10976 10974 10965 10965 10963 10964 10961 10960 10952 10955 10963 10966 10944 10926 10922 10920 10915 10916 10912 10913 10911 10907 10905 10905 10907 10910 10913 10913 10913 10913 10913 10915 10917 10923 10930 10937 10945 10953 10961 10965 10970 10975 10975 10977 10981 10983 10984
10964 10970 10974 10974 10963 10960 10957 10959 10956 10949 10950 10941 10940 10941 10934 10917 10917 10911 10907 10908 10907 10906 10905 10901 10900 10900 10903 10905 10907 10908 10908 10906 10906 10908 10910 10914 10922 10929 10938 10946 10954 10959 10965 10970 10973 10975 10977 10980 10981
10956 10964 10966 10965 10952 10949 10954 10951 10945 10942 10944 10939 10933 10933 10923 10911 10906 10907 10906 10904 10902 10903 10901 10897 10896 10896 10899 10901 10902 10903 10903 10903 10903 10903 10906 10910 10917 10924 10932 10939 10946 10955 10961 10965 10970 10972 10975 10977 10979
10951 10957 10957 10954 10944 10944 10944 10946 10939 10933 10941 10932 10931 10928 10911 10905 10907 10907 10906 10899 10898 10899 10896 10893 10891 10892 10894 10897 10899 10899 10899 10900 10900 10900 10902 10904 10910 10918 10925 10932 10940 10950 10955 10959 10966 10969 10973 10975 10976
10946 10953 10952 10946 10943 10941 10940 10938 10932 10928 10934 10921 10921 10923 10908 10905 10908 10905 10899 10895 10897 10895 10892 10889 10887 10887 10891 10894 10895 10895 10895 10898 10899 10900 10902 10903 10907 10911 10919 10928 10935 10942 10950 10956 10962 10965 10969 10972 10973
10936 10947 10947 10943 10942 10937 10932 10931 10926 10920 10934 10921 10912 10911 10907 10901 10904 10900 10894 10893 10893 10893 10890 10886 10886 10887 10890 10885 10886 10887 10888 10892 10898 10899 10899 10900 10902 10907 10913 10921 10930 10938 10945 10954 10958 10964 10967 10970 10972
10929 10928 10937 10936 10934 10929 10925 10924 10921 10913 10922 10913 10906 10902 10899 10896 10899 10896 10891 10892 10892 10892 10888 10884 10884 10887 10884 10881 10878 10885 10886 10890 10897 10900 10899 10899 10900 10903 10909 10917 10925 10933 10942 10948 10955 10960 10964 10967 10970
10923 10923 10925 10926 10923 10919 10919 10919 10913 10908 10905 10910 10902 10897 10893 10895 10893 10888 10889 10890 10890 10888 10885 10880 10882 10885 10881 10875 10874 10881 10885 10892 10900 10904 10903 10898 10897 10900 10906 10912 10920 10927 10936 10943 10950 10955 10959 10964 10967
10916 10917 10918 10917 10911 10906 10911 10914 10903 10894 10894 10892 10896 10895 10888 10885 10883 10885 10887 10888 10888 10885 10883 10881 10882 10885 10884 10879 10876 10879 10887 10893 10892 10894 10902 10900 10897 10898 10903 10908 10915 10922 10929 10939 10945 10950 10954 10960 10965
10909 10910 10912 10909 10902 10894 10901 10903 10902 10895 10888 10886 10885 10884 10881 10879 10881 10884 10886 10888 10888 10884 10882 10880 10880 10883 10887 10885 10882 10882 10890 10892 10877 10878 10895 10900 10897 10897 10902 10907 10910 10917 10924 10930 10940 10945 10951 10957 10962
10902 10904 10908 10900 10887 10885 10891 10899 10898 10897 10893 10886 10882 10879 10878 10877 10880 10883 10885 10887 10885 10883 10881 10880 10880 10880 10883 10884 10884 10884 10885 10888 10888 10888 10890 10891 10894 10896 10899 10904 10908 10913 10920 10928 10934 10941 10946 10953 10957
10896 10902 10905 10899 10887 10884 10885 10898 10900 10900 10896 10887 10886 10884 10882 10883 10882 10883 10884 10884 10882 10880 10879 10878 10878 10877 10876 10876 10876 10874 10875 10876 10877 10878 10880 10882 10888 10892 10896 10902 10905 10911 10917 10923 10930 10936 10941 10948 10953
10892 10898 10899 10905 10886 10876 10882 10891 10898 10887 10884 10884 10884 10879 10874 10874 10885 10884 10883 10882 10880 10878 10875 10875 10875 10873 10870 10869 10867 10867 10867 10866 10867 10870 10871 10874 10880 10886 10891 10897 10903 10908 10913 10917 10924 10931 10938 10944 10948
10885 10888 10891 10883 10874 10876 10882 10890 10885 10883 10878 10886 10889 10890 10879 10875 10883 10880 10880 10880 10878 10875 10873 10872 10870 10870 10868 10864 10861 10859 10860 10859 10859 10859 10862 10867 10872 10879 10885 10890 10898 10904 10909 10915 10920 10928 10935 10939 10943
10877 10882 10878 10877 10874 10876 10883 10884 10875 10874 10869 10877 10888 10872 10870 10883 10879 10875 10878 10877 10875 10873 10871 10870 10868 10866 10862 10859 10856 10854 10853 10852 10852 10853 10855 10858 10862 10870 10879 10884 10892 10900 10907 10912 10918 10924 10929 10933 10938
10869 10871 10874 10874 10874 10875 10880 10875 10868 10866 10866 10870 10875 10879 10880 10876 10873 10874 10879 10878 10873 10871 10870 10868 10865 10861 10858 10856 10852 10849 10847 10845 10843 10844 10846 10849 10853 10860 10869 10878 10885 10893 10902 10909 10915 10921 10924 10927 10932
10862 10863 10863 10864 10866 10869 10869 10868 10866 10862 10866 10872 10871 10873 10872 10871 10869 10869 10871 10870 10870 10870 10868 10865 10862 10859 10857 10851 10848 10845 10842 10835 10832 10833 10836 10840 10845 10850 10858 10869 10879 10889 10896 10904 10910 10916 10921 10924 10928
10854 10856 10855 10858 10860 10862 10862 10862 10864 10862 10864 10868 10876 10883 10871 10870 10867 10865 10866 10868 10869 10870 10867 10864 10860 10856 10853 10849 10843 10838 10833 10827 10823 10824 10828 10832 10838 10842 10849 10860 10871 10882 10890 10897 10904 10911 10916 10920 10924
10849 10851 10851 10853 10855 10858 10856 10857 10858 10860 10862 10863 10865 10867 10866 10868 10862 10862 10863 10865 10866 10865 10864 10861 10859 10854 10849 10844 10838 10832 10827 10823 10822 10823 10824 10828 10832 10837 10842 10851 10863 10876 10885 10891 10900 10906 10911 10914 10917
10844 10845 10847 10850 10850 10853 10854 10854 10855 10857 10857 10857 10860 10863 10864 10863 10860 10859 10861 10862 10862 10862 10860 10858 10856 10851 10846 10841 10835 10830 10824 10822 10821 10822 10823 10825 10827 10832 10838 10845 10857 10870 10880 10888 10896 10902 10905 10910 10912
10839 10842 10843 10847 10848 10851 10850 10853 10856 10858 10856 10856 10858 10859 10862 10859 10861 10860 10860 10860 10861 10860 10857 10856 10853 10850 10845 10841 10835 10831 10826 10823 10822 10823 10823 10824 10825 10828 10832 10839 10853 10866 10877 10884 10889 10895 10899 10902 10907
10835 10838 10840 10842 10844 10847 10848 10852 10857 10856 10853 10851 10852 10852 10854 10856 10858 10859 10858 10858 10858 10858 10854 10853 10851 10849 10844 10841 10836 10833 10830 10828 10826 10824 10822 10821 10823 10825 10829 10836 10848 10861 10871 10880 10885 10888 10893 10897 10902
10832 10835 10837 10838 10840 10843 10847 10849 10853 10857 10850 10848 10850 10849 10850 10851 10856 10854 10856 10856 10854 10853 10852 10851 10849 10846 10843 10841 10837 10834 10833 10830 10828 10825 10823 10822 10823 10824 10828 10835 10844 10854 10863 10871 10875 10882 10887 10891 10895
10829 10832 10834 10835 10835 10835 10838 10843 10843 10846 10843 10844 10846 10846 10847 10845 10847 10848 10851 10852 10850 10849 10849 10847 10846 10843 10842 10840 10838 10835 10833 10832 10830 10828 10826 10826 10827 10827 10829 10834 10840 10848 10855 10862 10870 10875 10880 10884 10888
10825 10828 10831 10832 10831 10829 10831 10836 10837 10843 10849 10849 10848 10844 10845 10841 10841 10842 10842 10846 10847 10846 10844 10843 10842 10840 10839 10838 10838 10836 10833 10832 10831 10831 10829 10828 10829 10830 10831 10834 10837 10841 10848 10856 10862 10866 10871 10877 10880